Weather History for KCQM - September, 2013

Change the Weather History Date:

Friday, September 13, 2013

  Actual Average Record
Temperature  
Mean Temperature 52 °F -  
Max Temperature 66 °F 66 °F 80 °F (2004)
Min Temperature 39 °F 45 °F 30 °F (2014)
Degree Days  
Heating Degree Days 12    
Growing Degree Days 2 (Base 50)    
Moisture  
Dew Point 46 °F    
Average Humidity 71    
Maximum Humidity 100    
Minimum Humidity 49    
Precipitation  
Precipitation 0.00 in - - ()
Sea Level Pressure  
Sea Level Pressure 30.17 in    
Wind  
Wind Speed 3 mph (SSW)    
Max Wind Speed 9 mph    
Max Gust Speed -    
Visibility 10 miles    
Events      
Averages and records for this station are not official NWS values.
T = Trace of Precipitation, MM = Missing Value Source: NWS Daily Summary

Daily Weather History Graph

Daily Weather History Graph

Search for Another Location

Airport or City:

Trip Planner

Search our weather history database for the weather conditions in past years. The results will help you decide how hot, cold, wet, or windy it might be!

Date:

Astronomy

Sep. 13, 2013 Rise Set
Actual Time 6:45 AM CDT 7:26 PM CDT
Civil Twilight 6:14 AM CDT 7:57 PM CDT
Nautical Twilight 5:37 AM CDT 8:34 PM CDT
Astronomical Twilight 4:58 AM CDT 9:13 PM CDT
Moon 3:35 PM CDT (9/13) No Moon Set
Length of Visible Light 13h 43m
Length of Day
12h 40m
First Quarter, 61% of the Moon is Illuminated
Sep 13
First Quarter
Sep 19
Full
Sep 26
Last Quarter
Oct 4
New
Oct 11
First Quarter

Hourly Weather History & Observations

Time (CDT) Temp. Dew Point Humidity Pressure Visibility Wind Dir Wind Speed Gust Speed Precip Events Conditions
12:16 AM 39.2 °F 39.2 °F 100% 30.26 in 10.0 mi Calm Calm - N/A   Clear
12:21 AM 39.2 °F 39.2 °F 100% 30.26 in 10.0 mi Calm Calm - N/A   Clear
5:27 AM 42.8 °F 42.8 °F 100% 30.26 in 10.0 mi Calm Calm - N/A   Overcast
5:37 AM 42.8 °F 42.8 °F 100% 30.26 in 10.0 mi Calm Calm - N/A   Overcast
5:56 AM 42.8 °F 42.8 °F 100% 30.26 in 10.0 mi Calm Calm - N/A   Overcast
6:16 AM 42.8 °F 42.8 °F 100% 30.26 in 10.0 mi Calm Calm - N/A   Overcast
6:37 AM 42.8 °F 42.8 °F 100% 30.26 in 10.0 mi Calm Calm - N/A   Overcast
6:56 AM 44.6 °F 42.8 °F 93% 30.26 in 10.0 mi Calm Calm - N/A   Overcast
7:17 AM 44.6 °F 44.6 °F 100% 30.26 in 10.0 mi Calm Calm - N/A   Overcast
7:37 AM 44.6 °F 42.8 °F 93% 30.26 in 10.0 mi Calm Calm - N/A   Mostly Cloudy
7:56 AM 44.6 °F 42.8 °F 93% 30.26 in 10.0 mi Calm Calm - N/A   Scattered Clouds
8:17 AM 46.4 °F 46.4 °F 100% 30.26 in 10.0 mi Calm Calm - N/A   Clear
8:37 AM 50.0 °F 46.4 °F 87% 30.26 in 10.0 mi Calm Calm - N/A   Clear
8:57 AM 51.8 °F 46.4 °F 82% 30.26 in 10.0 mi Calm Calm - N/A   Clear
9:16 AM 53.6 °F 46.4 °F 77% 30.26 in 10.0 mi SSW 4.6 mph - N/A   Clear
9:37 AM 55.4 °F 46.4 °F 72% 30.26 in 10.0 mi SSW 3.5 mph - N/A   Clear
9:57 AM 55.4 °F 46.4 °F 72% 30.26 in 10.0 mi SSW 8.1 mph - N/A   Clear
10:16 AM 57.2 °F 46.4 °F 67% 30.26 in 10.0 mi SSE 6.9 mph - N/A   Clear
10:37 AM 59.0 °F 46.4 °F 63% 30.25 in 10.0 mi SW 6.9 mph - N/A   Clear
10:56 AM 59.0 °F 46.4 °F 63% 30.25 in 10.0 mi SSW 6.9 mph - N/A   Clear
11:17 AM 60.8 °F 48.2 °F 63% 30.24 in 10.0 mi South 6.9 mph - N/A   Clear
11:37 AM 60.8 °F 46.4 °F 59% 30.24 in 10.0 mi South 5.8 mph - N/A   Clear
11:56 AM 62.6 °F 46.4 °F 55% 30.23 in 10.0 mi South 5.8 mph - N/A   Scattered Clouds
12:17 PM 62.6 °F 46.4 °F 55% 30.22 in 10.0 mi SSE 8.1 mph - N/A   Mostly Cloudy
12:37 PM 62.6 °F 46.4 °F 55% 30.22 in 10.0 mi South 4.6 mph - N/A   Mostly Cloudy
12:56 PM 62.6 °F 46.4 °F 55% 30.21 in 10.0 mi SW 5.8 mph - N/A   Overcast
1:17 PM 62.6 °F 46.4 °F 55% 30.20 in 10.0 mi West 3.5 mph - N/A   Mostly Cloudy
1:37 PM 62.6 °F 46.4 °F 55% 30.19 in 10.0 mi South 6.9 mph - N/A   Mostly Cloudy
1:56 PM 62.6 °F 46.4 °F 55% 30.19 in 10.0 mi SW 4.6 mph - N/A   Mostly Cloudy
2:17 PM 62.6 °F 46.4 °F 55% 30.18 in 10.0 mi SW 6.9 mph - N/A   Mostly Cloudy
2:37 PM 62.6 °F 46.4 °F 55% 30.17 in 10.0 mi SW 6.9 mph - N/A   Overcast
2:56 PM 64.4 °F 46.4 °F 52% 30.16 in 10.0 mi South 3.5 mph - N/A   Mostly Cloudy
3:17 PM 64.4 °F 48.2 °F 56% 30.16 in 10.0 mi SW 6.9 mph - N/A   Scattered Clouds
3:37 PM 66.2 °F 46.4 °F 49% 30.15 in 10.0 mi SW 8.1 mph - N/A   Scattered Clouds
3:56 PM 64.4 °F 46.4 °F 52% 30.14 in 10.0 mi SSW 4.6 mph - N/A   Scattered Clouds
4:17 PM 66.2 °F 46.4 °F 49% 30.13 in 10.0 mi SW 5.8 mph - N/A   Scattered Clouds
4:37 PM 66.2 °F 46.4 °F 49% 30.12 in 10.0 mi SSW 6.9 mph - N/A   Clear
4:56 PM 66.2 °F 46.4 °F 49% 30.12 in 10.0 mi SSW 8.1 mph - N/A   Clear
5:17 PM 66.2 °F 46.4 °F 49% 30.11 in 10.0 mi South 6.9 mph - N/A   Clear
5:37 PM 64.4 °F 46.4 °F 52% 30.10 in 10.0 mi SSW 9.2 mph - N/A   Clear
5:56 PM 64.4 °F 46.4 °F 52% 30.10 in 10.0 mi South 8.1 mph - N/A   Clear
6:17 PM 64.4 °F 46.4 °F 52% 30.10 in 10.0 mi SSW 4.6 mph - N/A   Clear
6:37 PM 64.4 °F 46.4 °F 52% 30.09 in 10.0 mi South 5.8 mph - N/A   Clear
6:56 PM 62.6 °F 48.2 °F 59% 30.07 in 10.0 mi South 3.5 mph - N/A   Clear
7:17 PM 60.8 °F 48.2 °F 63% 30.07 in 10.0 mi Calm Calm - N/A   Clear
7:36 PM 59.0 °F 48.2 °F 67% 30.06 in 10.0 mi Calm Calm - N/A   Clear
7:57 PM 55.4 °F 50.0 °F 82% 30.07 in 10.0 mi Calm Calm - N/A   Clear
8:16 PM 55.4 °F 48.2 °F 77% 30.07 in 10.0 mi Calm Calm - N/A   Clear
8:36 PM 55.4 °F 48.2 °F 77% 30.07 in 10.0 mi Calm Calm - N/A   Clear
8:57 PM 55.4 °F 48.2 °F 77% 30.07 in 10.0 mi Calm Calm - N/A   Clear
9:16 PM 55.4 °F 48.2 °F 77% 30.06 in 10.0 mi South 3.5 mph - N/A   Clear
9:36 PM 55.4 °F 48.2 °F 77% 30.06 in 10.0 mi South 4.6 mph - N/A   Clear
9:57 PM 53.6 °F 46.4 °F 77% 30.05 in 10.0 mi SSW 3.5 mph - N/A   Clear
10:16 PM 53.6 °F 46.4 °F 77% 30.05 in 10.0 mi Calm Calm - N/A   Clear
10:37 PM 53.6 °F 46.4 °F 77% 30.04 in 10.0 mi South 4.6 mph - N/A   Clear
10:57 PM 53.6 °F 46.4 °F 77% 30.03 in 10.0 mi South 3.5 mph - N/A   Clear
11:16 PM 53.6 °F 46.4 °F 77% 30.03 in 10.0 mi South 3.5 mph - N/A   Clear
11:37 PM 51.8 °F 46.4 °F 82% 30.03 in 10.0 mi SSE 3.5 mph - N/A   Clear
11:56 PM 51.8 °F 46.4 °F 82% 30.03 in 10.0 mi SSE 3.5 mph - N/A   Clear